www.pogodaiklimat.ru

Погода и климат >> Архив погоды >> Россия >> Адыгея >> Дондуковская


ПОГОДА в Дондуковской

  • Прогноз погоды в Дондуковской
  • Монитор погоды в Дондуковской

АРХИВ ПОГОДЫ в Дондуковской

Время (UTC), дата Ветер
(напр.,м/с)
 
Видим.   Явления Облачность Т
(С)
Тd
(С)
f
(%)
Тe
(С)
Тes
(С)
Комфортность P
(гПа)
Po
(гПа)
Тmin
(С)
Tmax
(С)
R
(мм)
R24
(мм)
S
(см)
06 12.07 З 1 10 км слаб. дождь 10/0 600 м
[As op]
+15.7 +14.0 90 +16 +19 1007.9 989.4 +14.9
09 12.07 С 1 10 км {дождь} 10/10 1000 м
[Sc]
+18.5 +14.3 77 +20 +20 1009.0 990.6
12 12.07 С 1 10 км {дождь} 5/5 1000 м
[Cu med, cong]
+22.2 +13.0 56 +25 +33 комфорт 1008.7 990.6
15 12.07 В 1 10 км 5/3 1000 м
[Cu hum Ci fib]
+22.6 +13.2 55 +26 +27 жарко 1008.8 990.7 +23.5 3
18 12.07 штиль 0 10 км 4/0
[Ac trans Ci fib]
+16.3 +13.5 83 +16 +16 1009.7 991.2
21 12.07 штиль 0 10 км ясно +14.4 +12.8 90 +14 +14 1009.6 991.0
00 13.07 штиль 0 10 км ясно +13.9 +12.5 91 +13 +13 1008.8 990.1
03 13.07 Ю 1 10 км 9/6 1000 м
[Sc Ac lent]
+15.3 +13.6 90 +16 +16 1009.1 990.5 +13.8
06 13.07 штиль 0 10 км 8/4 1000 м
[Sc Ac und]
+18.9 +14.6 76 +20 +24 1009.6 991.3
09 13.07 ЮЗ 2 10 км 8/5 1000 м
[Cu med, cong Ac trans]
+23.6 +12.1 48 +25 +31 комфорт 1009.0 991.0
12 13.07 З 3 10 км в посл. час дождь 8/4 1000 м
[Cb cap Ac trans]
+23.9 +12.5 49 +26 +30 жарко 1009.1 991.1
15 13.07 З 2
{10}
10 км 4/0
[Ac und]
+22.4 +12.9 55 +25 +27 комфорт 1010.5 992.3 +24.8 0.3
18 13.07 Ю 1 10 км ясно +16.4 +12.6 78 +17 +17 1011.6 993.1
21 13.07 Ю 1 10 км ясно +14.3 +12.2 87 +15 +15 1012.1 993.4
00 14.07 Ю 1 10 км 3/0
[Ci fib]
+13.0 +11.5 91 +13 +13 1011.6 992.8
03 14.07 ЮВ 2 10 км 3/0
[Ci fib]
+13.6 +12.2 91 +13 +14 1011.4 992.7 +12.0
06 14.07 Ю 1 10 км ясно +21.2 +12.6 58 +23 +36 комфорт 1011.0 992.8
09 14.07 ЮЗ 1 10 км 4/0
[Ac As]
+24.9 +10.2 40 +26 +42 жарко 1009.7 991.7
12 14.07 С 2 10 км 4/0
[Ac As Ci]
+26.6 +8.3 31 +27 +37 жарко 1008.1 990.2
15 14.07 С 1 10 км 6/0
[Ac As Ci]
+26.6 +8.6 32 +27 +29 жарко 1007.5 989.6 +28.0
18 14.07 СВ 1 10 км 10/0
[Ac As Ci]
+20.4 +12.0 59 +23 +23 комфорт 1008.0 989.8
21 14.07 В 1 10 км 10/0
[Ac As Ci]
+18.0 +11.4 65 +19 +19 1006.9 988.6
00 15.07 СВ 1 н/о дым ясно +15.6 +12.5 82 +16 +16 1006.1 987.6
03 15.07 В 1 10 км ясно +16.1 +12.8 81 +17 +18 1005.5 987.1 +15.2
06 15.07 СВ 3 10 км 10/0
[Ac und]
+22.7 +13.6 56 +26 +28 жарко 1005.5 986.5
09 15.07 В 2 10 км 10/0
[Ac und]
+24.3 +11.9 46 +26 +32 жарко 1004.0 986.0
12 15.07 штиль 0 10 км слаб. дождь 10/0 600 м
[As op]
+21.9 +18.0 79 +27 +30 душно 1003.8 985.8
15 15.07 С 1 10 км слаб. дождь 10/0 600 м
[As op]
+18.8 +17.2 90 +21 +22 комфорт 1004.8 986.6 +24.9 4
18 15.07 штиль 0 10 км {дождь} 8/6 1000 м
[Sc Ac lent]
+17.2 +16.0 93 +17 +17 1005.6 987.3
21 15.07 Ю 1 10 км слаб. дождь 10/0 600 м
[As op]
+17.2 +16.1 93 +18 +18 1006.1 987.8
00 16.07 Ю 2 10 км дождь {морось} 10/0 600 м
[As op]
+16.7 +15.6 93 +17 +17 1005.9 987.5
03 16.07 ЮВ 1 10 км дождь 10/0 600 м
[As op]
+16.8 +15.7 93 +18 +18 1006.2 987.8 +16.5 6
06 16.07 В 2 10 км {дождь} 10/8 1000 м
[Sc Ac und]
+20.3 +16.9 81 +24 +25 комфорт 1006.1 987.9
09 16.07 ЮЗ 3 10 км дождь 10/0 600 м
[As op]
+20.2 +16.8 81 +23 +27 комфорт 1006.5 988.3
12 16.07 ЮЗ 6-11
{11}
10 км {дождь} 8/5
[Sc Ac und]
+24.2 +14.0 53 +27 +28 жарко 1006.1 988.2
15 16.07 ЮЗ 5
{12}
10 км 3/3 1000 м
[Cu med, cong]
+23.3 +13.2 53 +26 +27 жарко 1007.6 989.5 +25.4 2
18 16.07 ЮЗ 2
{11}
10 км ясно +19.8 +13.8 68 +22 +22 комфорт 1009.8 991.5
21 16.07 ЮЗ 2 10 км ясно +17.5 +13.8 79 +18 +18 1010.1 991.7
00 17.07 Ю 1 10 км ясно +15.3 +12.3 82 +16 +16 1009.9 991.3
03 17.07 Ю 2 10 км ясно +15.5 +12.5 82 +15 +16 1010.0 991.4 +14.4
06 17.07 С 1 10 км ясно +23.7 +13.8 54 +26 +38 жарко 1009.1 991.1
09 17.07 С 2 10 км 4/0
[Ac trans Ci]
+26.4 +13.9 46 +29 +43 жарко 1007.8 989.9
12 17.07 СЗ 3 10 км 4/0
[Ac As Ci fib]
+27.9 +12.6 39 +29 +38 жарко 1006.9 989.1
15 17.07 С 2 10 км 10/0
[Ac und]
+27.4 +12.4 39 +29 +29 жарко 1006.4 988.6 +28.3
18 17.07 СВ 1 10 км 10/0
[Ac und]
+23.3 +14.3 57 +27 +27 душно 1006.4 988.4
21 17.07 СВ 1 10 км 10/0
[Ac und]
+21.1 +13.7 63 +24 +24 комфорт 1006.2 988.0
00 18.07 штиль 0 10 км 6/0
[Ac As]
+17.6 +14.1 80 +18 +18 1005.9 987.6
03 18.07 Ю 1 10 км 10/0
[Ac und]
+18.5 +14.9 80 +20 +21 1006.0 987.7 +17.5
06 18.07 штиль 0 10 км в посл. час гроза 10/0 600 м
[As op]
+17.9 +16.5 92 +18 +21 1007.0 988.7
09 18.07 СЗ 1 10 км дождь 10/0 600 м
[As op]
+19.2 +17.3 89 +22 +26 комфорт 1007.7 989.4
12 18.07 С 3 10 км {дождь} 8/6 1000 м
[Sc Ac trans]
+21.9 +18.1 79 +27 +30 душно 1008.3 990.2
15 18.07 С 2 10 км 8/3 1000 м
[Sc Ac lent Ci]
+22.6 +18.2 76 +28 +29 душно 1009.0 990.9 +23.8 10
18 18.07 СВ 1 10 км 6/0
[Ac lent Ci fib]
+19.9 +17.4 86 +24 +24 комфорт 1010.5 992.2
21 18.07 штиль 0 10 км гроза без осадков 10/4 1000 м
[Cb cap Ac lent]
+18.9 +17.3 90 +20 +20 1011.3 992.9
00 19.07 штиль 0 10 км {гроза} 10/5 1000 м
[Sc Ac lent]
+17.2 +16.0 93 +17 +17 1012.1 993.6

 

Местоположение метеостанции Дондуковская (Адыгея, Россия): широта 44.86 долгота 40.35 высота над уровнем моря 158 м.

В архиве по умолчанию представлена погода в Дондуковской за последнюю неделю. Архивные данные за месяц целиком и за предыдущие месяцы, начиная с января 2011 года, Вы можете получить, выбрав интересующий диапазон дат из раскрывающегося списка и нажав кнопку "Ввод!".


*Определитесь, кто Вы:
робот инопланетянин человек

Внимание! Время в таблицах - всемирное. Для получения местного времени необходимо прибавить поправку, которая равна 3 ч.

Смотрите также архив погоды в соседних городах и на ближайших метеорологических станциях:

Погода в Майкопе (Адыгея, Россия) (34 км)
Погода в Белореченске (Краснодарский край, Россия) (38 км)
Погода в Лабинске (Краснодарский край, Россия) (38 км)
Погода в Даховской (Адыгея, Россия) (38 км)
Погода в Шунтуке (Адыгея, Россия) (47 км)
Погода в Армавире (Краснодарский край, Россия) (62 км)
Погода в Усть-Лабинске (Краснодарский край, Россия) (64 км)
Погода в Кропоткине (Краснодарский край, Россия) (66 км)
Погода в Псебае (Краснодарский край, Россия) (88 км)
Погода в Кореновске (Краснодарский край, Россия) (96 км)

Пояснения к столбцам:

Ветер - указаны скорость ветра в м/с - средняя за 10 мин, порывы в срок и между сроками (в фигурных скобках) и направление, откуда дует ветер: С - северный, СВ - северо-восточный, В - восточный, ЮВ - юго-восточный, Ю - южный, ЮЗ - юго-западный, З - западный, СЗ - северо-западный.
Видимость - горизонтальная дальность видимости в метрах или километрах. При видимости от 1 до 10 км при отсутствии осадков обычно наблюдается дымка, при ухудшении видимости до 1 км и менее - туман. В сухую погоду видимость может ухудшаться дымом, пылью или мглою.
Явления - указаны атмосферные явления, наблюдавшиеся в срок или в последний час перед сроком; фигурными скобками обозначены явления, наблюдавшиеся между сроками (за 1-3 часа до срока); квадратными скобками обозначены град или гололедные отложения с указанием их диаметра в мм.
Облачность - указаны через наклонную черту общая и нижняя облачность в баллах и высота нижней границы облаков в метрах; квадратными скобками обозначены формы облаков: Ci - перистые, Cs - перисто-слоистые, Cc - перисто-кучевые, Ac - высококучевые, As - высокослоистые, Sc - слоисто-кучевые, Ns - слоисто-дождевые, Cu - кучевые, Cb - кучево-дождевые. Подробнее классификацию облаков см. в Атласе облаков (PDF).
T - Температура воздуха - температура, измеренная на высоте 2 м над землей.
Td - Температура точки росы - температура, при понижении до которой содержащийся в воздухе водяной пар достигнет насыщения.
f - Относительная влажность воздуха - влажноcть воздуха, измеренная на высоте 2 м над землей.
Te - Эффективная температура - температура, которую ощущает одетый по сезону человек в тени. Характеристика душности погоды. При расчете учитывается влияние влажности воздуха и скорости ветра на теплоощущения человека.
Tes - Эффективная температура на солнце - температура, которую ощущает человек, с поправкой на солнечный нагрев. Характеристика знойности погоды. Зависит от высоты солнца над горизонтом, облачности и скорости ветра. Ночью, в пасмурную погоду, а также при ветре 12 м/с и более поправка равна нулю.
P - Атмосферное давление - приведенное к уровню моря атмосферное давление.
Po - Атмосферное давление - измеренное на уровне метеостанции атмосферное давление.
Tmin - Минимальная температура - минимум температуры воздуха на высоте 2 м над землей.
Tmax - Максимальная температура - максимум температуры воздуха на высоте 2 м над землей.
R - Количество осадков - Количество выпавших осадков за период времени, мм. При наведении курсора мыши на число - период времени, за который выпало указанное количество осадков.
R24 - Количество осадков - Количество выпавших осадков за 24 часа, мм.
S - Снежный покров - Высота снежного покрова, см. При наведении курсора мыши на число - состояние снежного покрова и степень покрытия местности в баллах.